Regional Weather Roundup
Issued by NWS Green Bay, WI

Home | Current Version | Previous Version | Graphics & Text | Print | Product List | Glossary Off
Versions: 1 2 3 4 5 6 7 8 9 10 11 12 13 14 15 16 17 18 19 20 21 22 23 24 25 26 27 28 29 30 31 32 33 34 35 36 37 38 39 40 41 42 43 44 45 46 47 48 49 50

000
ASUS43 KGRB 300659
RWRGRB

NORTH-CENTRAL AND NORTHEAST WISCONSIN REGIONAL WEATHER ROUNDUP
NATIONAL WEATHER SERVICE GREEN BAY WI
200 AM CDT TUE SEP 30 2014

WIZ005-009-010>012-018-019-300800-
NORTH CENTRAL WISCONSIN

CITY           SKY/WX    TMP DP  RH WIND       PRES   REMARKS
IRONWOOD       NOT AVBL
MANITOWISH WTR NOT AVBL
ARBOR VITAE    NOT AVBL
EAGLE RIVER    NOT AVBL
LAND O LAKES   NOT AVBL
RHINELANDER    CLOUDY    37  36  96 NE8       30.13F
PHILLIPS       CLOUDY    38  36  93 NE7       30.13F
ANTIGO         NOT AVBL
TOMAHAWK       NOT AVBL
MERRILL        NOT AVBL
$$

WIZ013-073-300800-
NORTHEAST WISCONSIN

CITY           SKY/WX    TMP DP  RH WIND       PRES   REMARKS
IRON MOUNTAIN  CLOUDY    41  38  89 N9        30.12R
MARINETTE      NOT AVBL
$$

WIZ017-030-035>037-045-300800-
CENTRAL WISCONSIN

CITY           SKY/WX    TMP DP  RH WIND       PRES   REMARKS
MEDFORD        NOT AVBL
WAUSAU         CLOUDY    40  36  86 NE8       30.11F
MOSINEE        CLOUDY    39  37  93 E10       30.13S
MARSHFIELD     CLOUDY    42  37  82 E9        30.11R
WISC RAPIDS    CLOUDY    44  38  79 NE8       30.13R
STEVENS POINT  NOT AVBL
WAUPACA        NOT AVBL
SHAWANO        CLOUDY    44  39  81 N12G18    30.13S
CLINTONVILLE   NOT AVBL
$$

WIZ038-039-048-051-300800-
FOX VALLEY

CITY           SKY/WX    TMP DP  RH WIND       PRES   REMARKS
NWS GREEN BAY  CLOUDY    43  38  82 N13       30.11S
APPLETON       NOT AVBL
OSHKOSH        CLOUDY    45  39  79 N14       30.10S
FOND DU LAC    CLOUDY    45  39  79 NE16      30.09S
$$

WIZ022-050-052-300800-
EAST CENTRAL WISCONSIN

CITY           SKY/WX    TMP DP  RH WIND       PRES   REMARKS
STURGEON BAY   NOT AVBL
MANITOWOC      NOT AVBL
SHEBOYGAN      NOT AVBL
$$

LMZ563-521-522-541>543-300800-
LAKESHORE

STATION/POSITION TIME  TEMP    WIND        PRES    VSBY  WAVE
                       AIR SEA DIR/SP/G                  HT/PER
                 (UTC) (F)     (DEG/KT/KT) (MB)    (MI)  (FT/S)
SHEBOYGAN LKSHOR 0600   46 55   10/ 21/ 25 1018.9R
KEWAUNEE LKSHORE 0600   45     340/  6/ 10 1017.9R
NORTHPORT PIER   0600   47     350/ 22/ 28 1018.6S
N MID LAKE BUOY  0600   47 58  350/ 21/ 27 1017.5R         4/ 5
S GREEN BAY BUOY 0600   47     VRB 17/ 23  1020.2F
CHAMBERS ISLAND  0600   46     330/ 22/ 26 1019.0F
MENOMINEE LKSHOR 0600   45     340/ 17/ 20 1020.0S
$$



USA.gov is the U.S. government's official web portal to all federal, state and local government web resources and services.